Trinidad, CO

5:13 AM MST on December 17, 2017 (GMT -0700)
Stokes

Weather History for KTAD - September, 2013

Change the Weather History Date:

Thursday, September 12, 2013

  Actual Average Record
Temperature  
Mean Temperature 62 °F 66 °F  
Max Temperature 68 °F 81 °F 95 °F (1956)
Min Temperature 56 °F 51 °F 36 °F (1989)
Degree Days  
Heating Degree Days 3 2  
Month to date heating degree days 3 17  
Since 1 July heating degree days 8 27  
Cooling Degree Days 0 3  
Month to date cooling degree days 104 48  
Year to date cooling degree days 1030 690  
Growing Degree Days 12 (Base 50)    
Moisture  
Dew Point 57 °F    
Average Humidity 83    
Maximum Humidity 97    
Minimum Humidity 68    
Precipitation  
Precipitation 0.32 in 0.04 in 0.90 in (1952)
Month to date precipitation 1.22 0.59  
Year to date precipitation 8.53 11.05  
Sea Level Pressure  
Sea Level Pressure 30.07 in    
Wind  
Wind Speed 7 mph (South)    
Max Wind Speed 13 mph    
Max Gust Speed 16 mph    
Visibility 9 miles    
Events Rain    
T = Trace of Precipitation, MM = Missing Value Source: NWS Daily Summary

Daily Weather History Graph

Daily Weather History Graph

Search for Another Location

Airport or City:

Trip Planner

Search our weather history database for the weather conditions in past years. The results will help you decide how hot, cold, wet, or windy it might be!

Date:

Astronomy

Sep. 12, 2013 Rise Set
Actual Time 6:37 AM MDT 7:09 PM MDT
Civil Twilight 6:10 AM MDT 7:35 PM MDT
Nautical Twilight 5:40 AM MDT 8:06 PM MDT
Astronomical Twilight 5:08 AM MDT 8:37 PM MDT
Moon 1:58 PM MDT (9/12) No Moon Set
Length of Visible Light 13h 24m
Length of Day
12h 31m
Waxing Crescent, 51% of the Moon is Illuminated
Sep 12
Waxing Crescent
Sep 19
Full
Sep 26
Last Quarter
Oct 4
New
Oct 11
First Quarter

Hourly Weather History & Observations

Time (MDT) Temp. Dew Point Humidity Pressure Visibility Wind Dir Wind Speed Gust Speed Precip Events Conditions
12:54 AM 59.0 °F 55.9 °F 90% 30.06 in 10.0 mi SW 8.1 mph - N/A   Clear
1:54 AM 57.9 °F 55.0 °F 90% 30.06 in 10.0 mi WSW 8.1 mph - N/A   Clear
2:54 AM 59.0 °F 55.0 °F 87% 30.06 in 10.0 mi WSW 5.8 mph - N/A   Mostly Cloudy
3:54 AM 57.0 °F 54.0 °F 89% 30.06 in 10.0 mi WSW 9.2 mph - N/A   Clear
4:54 AM 57.0 °F 54.0 °F 89% 30.05 in 10.0 mi WSW 9.2 mph - N/A   Clear
5:54 AM 57.9 °F 54.0 °F 87% 30.07 in 10.0 mi West 9.2 mph - N/A   Clear
6:54 AM 59.0 °F 54.0 °F 83% 30.09 in 10.0 mi WNW 8.1 mph - N/A   Overcast
7:54 AM 61.0 °F 55.0 °F 81% 30.10 in 10.0 mi West 8.1 mph - N/A   Overcast
8:54 AM 63.0 °F 55.0 °F 75% 30.11 in 10.0 mi WSW 6.9 mph - N/A   Overcast
9:54 AM 64.0 °F 55.9 °F 75% 30.12 in 10.0 mi SE 3.5 mph - N/A   Overcast
10:54 AM 66.0 °F 55.9 °F 70% 30.12 in 10.0 mi SSE 3.5 mph - N/A   Overcast
11:54 AM 66.9 °F 57.0 °F 70% 30.11 in 10.0 mi SE 6.9 mph - N/A   Overcast
12:54 PM 66.9 °F 57.0 °F 70% 30.10 in 10.0 mi East 6.9 mph - 0.00 in Rain Light Rain
1:54 PM 64.0 °F 57.9 °F 80% 30.09 in 10.0 mi SE 6.9 mph - 0.02 in Rain Light Rain
2:54 PM 64.9 °F 60.1 °F 84% 30.06 in 10.0 mi SE 5.8 mph - 0.01 in   Overcast
3:54 PM 66.9 °F 59.0 °F 76% 30.04 in 10.0 mi ESE 6.9 mph - 0.00 in   Overcast
4:54 PM 66.9 °F 61.0 °F 81% 30.04 in 10.0 mi East 6.9 mph - N/A   Overcast
5:54 PM 64.0 °F 60.1 °F 87% 30.05 in 10.0 mi South 3.5 mph - 0.01 in   Overcast
6:54 PM 62.1 °F 57.9 °F 86% 30.06 in 10.0 mi SE 13.8 mph - 0.00 in   Overcast
7:54 PM 61.0 °F 59.0 °F 93% 30.06 in 5.0 mi ESE 5.8 mph - 0.06 in Rain Rain
8:54 PM 61.0 °F 59.0 °F 93% 30.07 in 6.0 mi SE 9.2 mph - 0.07 in Rain Light Rain
9:54 PM 61.0 °F 57.9 °F 90% 30.06 in 6.0 mi South 3.5 mph - 0.05 in Rain Light Rain
10:54 PM 61.0 °F 59.0 °F 93% 30.05 in 10.0 mi WNW 5.8 mph - 0.04 in Rain Light Rain
11:54 PM 60.1 °F 57.0 °F 90% 30.04 in 6.0 mi East 6.9 mph - 0.03 in Rain Light Rain